WB0VHB-WX Weather Reports


time (UTC)temp
C
wind
direction
speed
KPH
gust
KPH
rain 1hr
cm
rain 24hr
cm
rain mn
cm
humidity
%
barometer
mb
20260906090903 22 87 6.4 14.5 0.00 0.00 0.00 80 1014.8
20260906090003 23 91 6.4 14.5 0.00 0.00 0.00 80 1014.6
20260906085403 23 88 8.0 14.5 0.00 0.00 0.00 80 1014.6
20260906084503 23 83 6.4 14.5 0.00 0.00 0.00 79 1014.8
20260906083603 23 89 6.4 14.5 0.00 0.00 0.00 79 1014.8
20260906082703 23 89 6.4 14.5 0.00 0.00 0.00 79 1014.8
20260906081803 23 89 8.0 16.1 0.00 0.00 0.00 79 1014.7
20260906080903 23 91 8.0 17.7 0.00 0.00 0.00 79 1014.8
20260906080004 23 92 8.0 17.7 0.00 0.00 0.00 79 1014.8
20260906075403 23 90 8.0 16.1 0.00 0.00 0.00 79 1014.8
20260906074524 23 85 6.4 12.9 0.00 0.00 0.00 79 1014.8
20260906073604 23 89 6.4 16.1 0.00 0.00 0.00 79 1014.8
20260906072703 23 72 6.4 19.3 0.00 0.00 0.00 78 1014.9
20260906071803 23 65 6.4 14.5 0.00 0.00 0.00 78 1014.9
20260906070903 23 70 6.4 14.5 0.00 0.00 0.00 78 1015.0
20260906070024 23 83 6.4 14.5 0.00 0.00 0.00 78 1015.0
20260906065424 23 77 6.4 14.5 0.00 0.00 0.00 78 1015.0
20260906064524 23 62 6.4 14.5 0.00 0.00 0.00 78 1015.2
20260906063603 23 61 4.8 14.5 0.00 0.00 0.00 79 1015.2
20260906062703 23 70 3.2 8.0 0.00 0.00 0.00 79 1015.2
20260906061803 23 74 1.6 6.4 0.00 0.00 0.00 79 1015.2
20260906060903 23 78 3.2 4.8 0.00 0.00 0.00 79 1015.1
20260906060003 23 77 3.2 9.7 0.00 0.00 0.00 79 1015.3
20260906055403 23 75 3.2 9.7 0.00 0.00 0.00 79 1015.3
20260906054503 23 68 3.2 8.0 0.00 0.00 0.00 79 1015.2
20260906053624 23 65 3.2 8.0 0.00 0.00 0.00 79 1015.3
20260906052703 24 64 3.2 8.0 0.00 0.00 0.00 79 1015.2
20260906051824 24 59 3.2 8.0 0.00 0.00 0.00 78 1015.1
20260906050903 24 53 3.2 6.4 0.00 0.00 0.00 78 1015.1
20260906050025 24 68 3.2 9.7 0.00 0.00 0.00 78 1014.9
20260906045403 24 73 3.2 9.7 0.00 0.00 0.00 78 1014.9
20260906044503 24 77 3.2 9.7 0.00 0.00 0.00 78 1014.8
20260906043625 25 83 4.8 11.3 0.00 0.00 0.00 78 1014.6
20260906042724 25 68 4.8 14.5 0.00 0.00 0.00 77 1014.5
20260906041803 25 65 6.4 12.9 0.00 0.00 0.00 77 1014.3
20260906040903 25 74 6.4 14.5 0.00 0.00 0.00 77 1014.3
20260906040003 25 71 6.4 14.5 0.00 0.00 0.00 77 1014.3
20260906035403 25 70 6.4 12.9 0.00 0.00 0.00 77 1014.2
20260906034503 25 66 6.4 12.9 0.00 0.00 0.00 77 1014.2
20260906033603 25 74 6.4 12.9 0.00 0.00 0.00 77 1014.0
20260906032703 25 80 8.0 14.5 0.00 0.00 0.00 77 1013.9
20260906031824 25 83 8.0 16.1 0.00 0.00 0.00 77 1013.8
20260906030903 25 87 8.0 14.5 0.00 0.00 0.00 78 1013.7
20260906030004 25 91 4.8 12.9 0.00 0.00 0.00 78 1013.6
20260906025403 26 90 4.8 11.3 0.00 0.00 0.00 78 1013.7
20260906024524 26 81 4.8 14.5 0.00 0.00 0.00 78 1013.7
20260906023603 26 71 6.4 12.9 0.00 0.00 0.00 78 1013.7
20260906022703 26 62 4.8 12.9 0.00 0.00 0.00 78 1013.6
20260906021803 26 61 3.2 8.0 0.00 0.00 0.00 78 1013.6
20260906020903 26 51 1.6 6.4 0.00 0.00 0.00 77 1013.5
20260906020003 26 59 3.2 6.4 0.00 0.00 0.00 77 1013.4
20260906015403 26 60 3.2 6.4 0.00 0.00 0.00 77 1013.3
20260906014524 26 59 3.2 8.0 0.00 0.00 0.00 77 1013.1
20260906013603 27 54 3.2 9.7 0.00 0.00 0.00 76 1012.9
20260906012703 27 59 6.4 12.9 0.00 0.00 0.00 76 1012.8
20260906011803 27 59 6.4 16.1 0.00 0.00 0.00 76 1012.6
20260906010903 27 60 6.4 12.9 0.00 0.00 0.00 76 1012.5
20260906010003 28 59 6.4 14.5 0.00 0.00 0.00 75 1012.5
20260906005403 28 59 6.4 16.1 0.00 0.00 0.00 75 1012.5
20260906004503 28 56 4.8 20.9 0.00 0.00 0.00 74 1012.6
20260906003603 29 53 6.4 14.5 0.00 0.00 0.00 73 1012.4
20260906002703 30 57 6.4 16.1 0.00 0.00 0.00 72 1012.4
20260906001803 30 62 6.4 14.5 0.00 0.00 0.00 71 1012.4
20260906000903 30 71 4.8 8.0 0.00 0.00 0.00 70 1012.3
20260906000024 30 58 4.8 8.0 0.00 0.00 0.00 69 1012.3
20260905235403 31 61 6.4 11.3 0.00 0.00 0.00 68 1012.2
20260905234504 31 64 6.4 12.9 0.00 0.00 0.00 67 1012.1
20260905233603 31 56 4.8 16.1 0.00 0.00 0.00 67 1012.2
20260905232703 31 59 1.6 6.4 0.00 0.00 0.00 67 1012.2
20260905231803 32 63 3.2 8.0 0.00 0.00 0.00 67 1012.1
20260905230924 32 62 3.2 8.0 0.00 0.00 0.00 67 1012.0
20260905230004 32 62 4.8 12.9 0.00 0.00 0.00 67 1012.0
20260905225403 32 65 8.0 16.1 0.00 0.00 0.00 65 1011.9
20260905224524 32 59 4.8 16.1 0.00 0.00 0.00 64 1011.9
20260905223603 33 52 1.6 6.4 0.00 0.00 0.00 64 1011.8
20260905222724 33 50 1.6 9.7 0.00 0.00 0.00 63 1011.8
20260905221803 33 42 1.6 6.4 0.00 0.00 0.00 62 1011.9
20260905220903 33 65 3.2 14.5 0.00 0.00 0.00 63 1011.9
20260905220003 33 20 3.2 9.7 0.00 0.00 0.00 63 1011.8
20260905215403 33 45 3.2 9.7 0.00 0.00 0.00 62 1011.7
20260905214503 33 47 1.6 6.4 0.00 0.00 0.00 62 1011.9
20260905213603 33 44 1.6 6.4 0.00 0.00 0.00 65 1011.9
20260905212703 32 48 1.6 8.0 0.00 0.00 0.00 67 1011.9
20260905211803 32 41 3.2 9.7 0.00 0.00 0.00 65 1012.0
20260905210925 33 37 1.6 11.3 0.00 0.00 0.00 65 1012.1
20260905210004 33 21 1.6 8.0 0.00 0.00 0.00 64 1012.2
20260905205424 33 23 1.6 6.4 0.00 0.00 0.00 66 1012.2
20260905204503 33 2 0.0 4.8 0.00 0.00 0.00 64 1012.3
20260905203603 33 56 3.2 11.3 0.00 0.00 0.00 64 1012.3
20260905202703 33 28 1.6 4.8 0.00 0.00 0.00 64 1012.3
20260905201803 33 4 0.0 4.8 0.00 0.00 0.00 64 1012.5
20260905200903 33 1 1.6 4.8 0.00 0.00 0.00 63 1012.5
20260905200003 32 6 1.6 4.8 0.00 0.00 0.00 65 1012.5
20260905195403 33 3 0.0 4.8 0.00 0.00 0.00 64 1012.6
20260905194503 33 358 1.6 4.8 0.00 0.00 0.00 65 1012.7
20260905193603 33 47 1.6 4.8 0.00 0.00 0.00 64 1012.6
20260905192724 33 6 1.6 4.8 0.00 0.00 0.00 63 1012.7
20260905191803 33 11 1.6 4.8 0.00 0.00 0.00 64 1012.7
20260905190903 33 45 1.6 4.8 0.00 0.00 0.00 64 1012.9
20260905190003 33 41 1.6 4.8 0.00 0.00 0.00 63 1013.0
20260905185424 33 61 3.2 9.7 0.00 0.00 0.00 63 1013.0
20260905184503 33 62 1.6 6.4 0.00 0.00 0.00 61 1012.9
20260905183603 33 39 1.6 4.8 0.00 0.00 0.00 61 1013.0
20260905182703 33 5 1.6 4.8 0.00 0.00 0.00 61 1013.0
20260905181824 33 360 1.6 4.8 0.00 0.00 0.00 62 1013.0
20260905180903 33 358 3.2 6.4 0.00 0.00 0.00 60 1013.0
20260905180003 33 38 3.2 8.0 0.00 0.00 0.00 62 1013.1
20260905175404 33 42 3.2 8.0 0.00 0.00 0.00 62 1013.1
20260905174503 33 2 3.2 8.0 0.00 0.00 0.00 61 1013.1
20260905173624 33 357 3.2 8.0 0.00 0.00 0.00 61 1013.1
20260905172703 33 28 1.6 8.0 0.00 0.00 0.00 63 1013.3
20260905171803 33 29 3.2 9.7 0.00 0.00 0.00 63 1013.3
20260905170904 33 347 3.2 6.4 0.00 0.00 0.00 64 1013.4
20260905170003 32 315 1.6 6.4 0.00 0.00 0.00 62 1013.5
20260905165403 32 328 3.2 6.4 0.00 0.00 0.00 63 1013.5
20260905164524 32 333 1.6 8.0 0.00 0.00 0.00 62 1013.5
20260905163603 32 341 1.6 8.0 0.00 0.00 0.00 64 1013.5
20260905162703 32 335 3.2 6.4 0.00 0.00 0.00 63 1013.6
20260905161824 32 342 1.6 6.4 0.00 0.00 0.00 64 1013.6
20260905160903 32 322 3.2 11.3 0.00 0.00 0.00 64 1013.5
20260905160024 32 319 3.2 8.0 0.00 0.00 0.00 62 1013.5
20260905155403 32 321 3.2 8.0 0.00 0.00 0.00 63 1013.4
20260905154524 32 310 3.2 8.0 0.00 0.00 0.00 63 1013.3
20260905153625 32 289 3.2 9.7 0.00 0.00 0.00 62 1013.2
20260905152703 31 299 3.2 11.3 0.00 0.00 0.00 61 1013.1
20260905151803 31 300 4.8 12.9 0.00 0.00 0.00 63 1013.1
20260905150903 31 306 1.6 8.0 0.00 0.00 0.00 63 1012.9
20260905150003 31 290 3.2 9.7 0.00 0.00 0.00 63 1012.9
20260905145424 31 294 3.2 9.7 0.00 0.00 0.00 63 1013.0
20260905144503 31 292 3.2 9.7 0.00 0.00 0.00 63 1012.9
20260905143603 31 265 1.6 6.4 0.00 0.00 0.00 65 1012.9
20260905142724 30 262 0.0 3.2 0.00 0.00 0.00 64 1012.9
20260905141803 30 241 1.6 6.4 0.00 0.00 0.00 65 1012.9
20260905140903 30 242 1.6 4.8 0.00 0.00 0.00 66 1012.7
20260905140004 30 244 0.0 4.8 0.00 0.00 0.00 67 1012.8
20260905135403 30 259 0.0 3.2 0.00 0.00 0.00 67 1012.9
20260905134504 29 242 1.6 4.8 0.00 0.00 0.00 68 1012.7
20260905133603 28 258 0.0 4.8 0.00 0.00 0.00 69 1012.5
20260905132703 27 0 0.0 0.0 0.00 0.00 0.00 71 1012.5
20260905131804 27 220 0.0 1.6 0.00 0.00 0.00 74 1012.4
20260905130903 26 221 0.0 4.8 0.00 0.00 0.00 76 1012.5
20260905130003 26 220 0.0 3.2 0.00 0.00 0.00 77 1012.4
20260905125403 25 209 1.6 4.8 0.00 0.00 0.00 78 1012.5
20260905124503 25 204 0.0 4.8 0.00 0.00 0.00 78 1012.3
20260905123603 24 235 0.0 1.6 0.00 0.00 0.00 78 1012.4
20260905122703 24 231 0.0 1.6 0.00 0.00 0.00 79 1012.5
20260905121803 23 218 1.6 3.2 0.00 0.00 0.00 79 1012.4
20260905120924 23 216 1.6 4.8 0.00 0.00 0.00 79 1012.4
20260905120003 23 0 0.0 0.0 0.00 0.00 0.00 79 1012.3
20260905115424 23 226 0.0 1.6 0.00 0.00 0.00 79 1012.3
20260905114503 23 226 0.0 3.2 0.00 0.00 0.00 79 1012.0
20260905113603 23 0 0.0 0.0 0.00 0.00 0.00 79 1011.9
20260905112703 23 226 0.0 1.6 0.00 0.00 0.00 79 1011.7
20260905111803 23 226 0.0 3.2 0.00 0.00 0.00 79 1011.7
20260905110903 23 226 0.0 4.8 0.00 0.00 0.00 78 1011.7
20260905110003 23 225 1.6 3.2 0.00 0.00 0.00 78 1011.6
20260905105403 24 213 1.6 6.4 0.00 0.00 0.00 78 1011.6
20260905104503 24 216 1.6 6.4 0.00 0.00 0.00 78 1011.5
20260905103603 24 207 1.6 6.4 0.00 0.00 0.00 78 1011.5
20260905102724 24 210 1.6 3.2 0.00 0.00 0.00 78 1011.5
20260905101803 24 214 0.0 1.6 0.00 0.00 0.00 78 1011.5
20260905100903 24 0 0.0 0.0 0.00 0.00 0.00 78 1011.5
20260905100003 24 0 0.0 0.0 0.00 0.00 0.00 78 1011.6
20260905095403 24 210 0.0 1.6 0.00 0.00 0.00 78 1011.7
20260905094503 24 212 1.6 3.2 0.00 0.00 0.00 77 1011.8
20260905093603 25 229 0.0 1.6 0.00 0.00 0.00 77 1011.7
20260905092703 25 227 0.0 1.6 0.00 0.00 0.00 77 1011.8
20260905091824 25 227 1.6 4.8 0.00 0.00 0.00 77 1011.8